"Pseudo-MPEC" for MRA1426

Created 2024 Jul 14 16:22:06 UT using Find_Orb

Click here for an explanation of pseudo-MPECs

 
 Astrometry: 
     MRA1426 KB2024 07 08.12215321 17 13.53 -21 34 54.0    ~78EM 22.1 gZNEOCPY64
     MRA1426 KB2024 07 08.12684221 17 12.36 -21 34 21.8    ~78EM       ZNEOCPY64
     MRA1426 KB2024 07 08.13127021 17 11.22 -21 33 50.7    ~78EM       ZNEOCPY64
     MRA1426 KB2024 07 08.13572821 17 10.13 -21 33 19.5    ~78EM 22.3 gZNEOCPY64
     MRA1426 KB2024 07 08.14009821 17 09.00 -21 32 49.0    ~78EM 22.4 gZNEOCPY64
     MRA1426 KB2024 07 08.16894021 17 01.75 -21 29 27.0 FixDup   21.2 gZNEOCPY66
     MRA1426*KB2024 07 08.16894021 17 01.75 -21 29 27.0 Duplicate21.2 gZNEOCPY66
     MRA1426 KB2024 07 08.17336821 17 00.66 -21 28 56.5    ~78EM 21.3 gZNEOCPY66
     MRA1426 KB2024 07 08.17788421 16 59.53 -21 28 24.6    ~78EM 21.8 gZNEOCPY66
     MRA1426 KB2024 07 08.18243021 16 58.35 -21 27 52.3    ~78EM 22.0 gZNEOCPY66
     MRA1426 KB2024 07 08.18697721 16 57.24 -21 27 20.9    ~78EM       ZNEOCPY66

Station data:
(Y64) Transient Survey Telescope, Teide  (N28.298930 W16.510390)  Canary
   Islands (Spain).
(Y66) Two-Meter Twin Telescope, TTT2, Teide  (N28.298728 W16.509470)  Canary
   Islands (Spain).

Orbital elements:  MRA1426
   Perihelion 2024 Jun 5.28105 +/- 52.4 TT =  6:44:43 (JD 2460466.78105)
Epoch 2024 Jul  8.0 TT = JDT 2460499.5   Earth MOID: 0.1852      AutoNEOCP
M  12.40029977 +/- 39               (J2000 ecliptic)
n   0.37899446 +/- 0.343            Peri.  328.09363 +/- 60
a   1.89109845 +/- 1.14             Node   292.98689 +/- 1.7
e   0.3857373 +/- 0.265             Incl.   25.70480 +/- 16
P   2.601/949.864d         H 23.26  G  0.15   U 12.0  SR
q 1.16163107 +/- 0.285    Q 2.62056582 +/- 25.5
From 11 observations 2024 July 8 (93.3 min); mean residual 0".20
Residuals in arcseconds: 
240708 Y64  .00   .29+    240708 Y64  .18-  .04-    240708 Y66  .24+  .10-    
240708 Y64  .15+  .24-    240708 Y66  .12-  .17+    240708 Y66  .30-  .34+    
240708 Y64  .21-  .06-    240708 Y66  .12-  .17+    240708 Y66  .12+  .15-    
240708 Y64  .24+  .01-    240708 Y66  .19+  .35-    

Ephemerides (geocentric):
Date (UTC) HH   RA             Dec           delta  r     elong  mag " sig PA
---- --------  ------------   ------------  ------ ------ -----  --- --------
2024 07 14 16  20 52 50.525   -09 14 00.61  .22097 1.2240 157.9 21.4 675'  26
2024 07 14 17  20 52 41.786   -09 09 33.80  .22108 1.2242 157.9 21.4 690'  26
2024 07 14 18  20 52 33.056   -09 05 07.28  .22118 1.2243 157.9 21.4 705'  27
2024 07 14 19  20 52 24.334   -09 00 41.05  .22129 1.2244 158.0 21.4 720'  27
2024 07 14 20  20 52 15.620   -08 56 15.11  .22140 1.2245 158.0 21.4 735'  28
2024 07 14 21  20 52 06.914   -08 51 49.47  .22151 1.2247 158.0 21.4 751'  28
2024 07 14 22  20 51 58.217   -08 47 24.12  .22162 1.2248 158.0 21.4 766'  29
2024 07 14 23  20 51 49.528   -08 42 59.06  .22173 1.2249 158.0 21.4 782'  29
2024 07 15 00  20 51 40.847   -08 38 34.30  .22184 1.2250 158.1 21.4 798'  30
2024 07 15 01  20 51 32.174   -08 34 09.84  .22195 1.2252 158.1 21.4 814'  30
2024 07 15 02  20 51 23.510   -08 29 45.68  .22206 1.2253 158.1 21.4 831'  31
2024 07 15 03  20 51 14.854   -08 25 21.82  .22218 1.2254 158.1 21.4 847'  32
2024 07 15 04  20 51 06.207   -08 20 58.26  .22229 1.2255 158.1 21.4 864'  32
2024 07 15 05  20 50 57.568   -08 16 35.01  .22240 1.2257 158.2 21.4 880'  33
2024 07 15 06  20 50 48.937   -08 12 12.05  .22252 1.2258 158.2 21.4 897'  34
2024 07 15 07  20 50 40.315   -08 07 49.41  .22263 1.2259 158.2 21.4 914'  34
2024 07 15 08  20 50 31.701   -08 03 27.07  .22275 1.2261 158.2 21.4 931'  35
2024 07 15 09  20 50 23.095   -07 59 05.04  .22286 1.2262 158.2 21.4 949'  36
2024 07 15 10  20 50 14.498   -07 54 43.32  .22298 1.2263 158.2 21.4 966'  36
2024 07 15 11  20 50 05.909   -07 50 21.91  .22310 1.2264 158.3 21.4 983'  37
2024 07 15 12  20 49 57.329   -07 46 00.81  .22322 1.2266 158.3 21.4  17d  38
2024 07 15 13  20 49 48.757   -07 41 40.02  .22333 1.2267 158.3 21.4  17d  38
2024 07 15 14  20 49 40.194   -07 37 19.55  .22345 1.2268 158.3 21.4  17d  39
2024 07 15 15  20 49 31.639   -07 32 59.39  .22357 1.2269 158.3 21.4  18d  40
2024 07 15 16  20 49 23.093   -07 28 39.55  .22369 1.2271 158.3 21.4  18d  40
2024 07 15 17  20 49 14.555   -07 24 20.02  .22381 1.2272 158.3 21.4  18d  41
2024 07 15 18  20 49 06.026   -07 20 00.82  .22394 1.2273 158.4 21.4  18d  42
2024 07 15 19  20 48 57.505   -07 15 41.93  .22406 1.2275 158.4 21.4  19d  42
2024 07 15 20  20 48 48.993   -07 11 23.37  .22418 1.2276 158.4 21.4  19d  43
2024 07 15 21  20 48 40.489   -07 07 05.13  .22430 1.2277 158.4 21.4  19d  43
2024 07 15 22  20 48 31.994   -07 02 47.21  .22443 1.2278 158.4 21.4  19d  44
2024 07 15 23  20 48 23.508   -06 58 29.61  .22455 1.2280 158.4 21.4  20d  44
2024 07 16 00  20 48 15.030   -06 54 12.34  .22468 1.2281 158.4 21.4  20d  45
2024 07 16 01  20 48 06.561   -06 49 55.40  .22480 1.2282 158.4 21.4  20d  45
2024 07 16 02  20 47 58.100   -06 45 38.79  .22493 1.2284 158.4 21.4  21d  46
2024 07 16 03  20 47 49.648   -06 41 22.50  .22505 1.2285 158.5 21.4  21d  46
2024 07 16 04  20 47 41.205   -06 37 06.54  .22518 1.2286 158.5 21.4  21d  47
2024 07 16 05  20 47 32.771   -06 32 50.92  .22531 1.2288 158.5 21.4  21d  47
2024 07 16 06  20 47 24.345   -06 28 35.62  .22544 1.2289 158.5 21.4  22d  48
2024 07 16 07  20 47 15.928   -06 24 20.66  .22557 1.2290 158.5 21.4  22d  48
2024 07 16 08  20 47 07.519   -06 20 06.03  .22569 1.2291 158.5 21.4  22d  49
2024 07 16 09  20 46 59.119   -06 15 51.74  .22582 1.2293 158.5 21.4  22d  49
2024 07 16 10  20 46 50.728   -06 11 37.78  .22596 1.2294 158.5 21.4  23d  49
2024 07 16 11  20 46 42.346   -06 07 24.16  .22609 1.2295 158.5 21.4  23d  50
2024 07 16 12  20 46 33.973   -06 03 10.88  .22622 1.2297 158.5 21.4  23d  50
2024 07 16 13  20 46 25.608   -05 58 57.94  .22635 1.2298 158.5 21.4  23d  51
2024 07 16 14  20 46 17.252   -05 54 45.33  .22648 1.2299 158.5 21.4  23d  51
2024 07 16 15  20 46 08.905   -05 50 33.07  .22662 1.2301 158.5 21.4  24d  51